AirNav   Pilot Hours Calculator
 
 1380 users online  

2NY0 Catskill Valley Airpark
South Cairo, New York, USA

GOING TO SOUTH CAIRO?


FAA INFORMATION EFFECTIVE 09 SEPTEMBER 2021

Location

FAA Identifier: 2NY0
Lat/Long: 42-16-50.3110N 073-57-10.4710W
42-16.838517N 073-57.174517W
42.2806419,-73.9529086
(estimated)
Elevation: 190 ft. / 58 m (estimated)
Variation: 14W (1985)
From city: 3 miles SE of SOUTH CAIRO, NY
Time zone: UTC -4 (UTC -5 during Standard Time)
Zip code: 12451

Airport Operations

Airport use: Private use. Permission required prior to landing
Activation date: 06/1962
Control tower: no
ARTCC: BOSTON CENTER
FSS: BURLINGTON FLIGHT SERVICE STATION
Attendance: UNATNDD
Wind indicator: no
Segmented circle: no

Airport Communications

WX AWOS-3 at 1B1 (11 nm E): 133.525 (518-828-2577)

Nearby radio navigation aids

VOR radial/distance  VOR name  Freq  Var
ALBr206/28.8ALBANY VORTAC115.3013W
PWLr345/34.4PAWLING VOR/DME114.3012W
IGNr003/37.4KINGSTON VOR/DME117.6012W

 
NDB name  Hdg/Dist  Freq  Var  ID
PHILMONT292/10.327213WPFH .--. ..-. ....
HUNTER195/34.435614WHEU .... . ..-

Airport Services

Runway Information

Runway 2/20

Dimensions: 1475 x 50 ft. / 450 x 15 m
Surface: turf
RUNWAY 2  RUNWAY 20
Traffic pattern: leftleft

Airport Ownership and Management from official FAA records

Ownership: Privately-owned
Owner: CLEMENTS J HOOVLER JR
BOX 44
SOUTH CAIRO, NY 12482
Phone 518-622-3307
Manager: C J HOOVLER JR
BOX 44
SOUTH CAIRO, NY 12482
Phone 518-622-3307

Airport Operational Statistics

Aircraft based on the field: 2
Single engine airplanes: 2
    

Additional Remarks

FOR CD CTC ALBANY APCH AT 518-862-2299.

Instrument Procedures

There are no published instrument procedures at 2NY0.

Some nearby airports with instrument procedures:

1B1 - Columbia County Airport (11 nm E)
4B0 - South Albany Airport (18 nm N)
20N - Kingston-Ulster Airport (18 nm S)
KGBR - Walter J Koladza Airport (25 nm E)
KALB - Albany International Airport (29 nm N)
 
Loc | Ops | Rwys | IFR | FBO | Links
Com | Nav | Svcs | Stats | Notes
Area around 2NY0 (Catskill Valley Airpark)
 
Road maps at: MapQuest Bing Google
 
Aerial photo
No photo
 
Sectional chart

 
Airport distance calculator
Flying to Catskill Valley Airpark? Find the distance to fly.

From to 2NY0

Sunrise and sunset
Times for 23-Sep-2021
 Local
(UTC-4)
 Zulu
(UTC)
Morning civil twilight06:1710:17
Sunrise06:4510:45
Sunset18:5122:51
Evening civil twilight19:1923:19

Current date and time
Zulu (UTC)  23-Sep-2021 21:38:26
Local (UTC-4)  23-Sep-2021 17:38:26
 
METAR
KALB 
29nm N 
232051Z 14012G20KT 10SM FEW031 BKN047 OVC090 24/18 A2991 RMK AO2 SLP126 T02390183 55002
KPSF 
31nm E 
232107Z AUTO 12008KT 090V150 10SM SCT024 BKN031 BKN038 22/18 A2997 RMK AO2 RAE2056 P0000 T02220183
KSCH 
34nm N 
232055Z 16008G16KT 10SM SCT038 BKN046 OVC090 25/18 A2991
TAF
KALB 
29nm N 
231739Z 2318/2418 15015G25KT P6SM VCSH BKN040 BKN120 FM240200 15010G16KT 6SM -RA BKN025 OVC040 WS020/15040KT FM240500 16010KT 2SM RA BR SCT008 OVC015 FM241100 20005KT 6SM -SHRA BR OVC040 FM241400 21007KT P6SM BKN070
KPSF 
31nm E 
231739Z 2318/2418 14014G22KT P6SM VCSH SCT025 BKN250 TEMPO 2318/2322 BKN020 FM232200 14010G17KT P6SM VCSH BKN020 WS020/16040KT FM240300 13007KT 6SM -RA SCT015 OVC020 WS020/16045KT FM240600 14007KT 2SM RA BR SCT008 OVC012 FM241300 VRB03KT 6SM -SHRA BR OVC008 FM241600 24005KT P6SM SCT012 BKN060
NOTAMs
Click for the latest NOTAMs
NOTAMs are issued by the DoD/FAA and will open in a separate window not controlled by AirNav.

 

 
 

Would you like to see your business listed on this page?

 If your business provides an interesting product or service to pilots, flight crews, aircraft, or users of the Catskill Valley Airpark, you should consider listing it here.  To start the listing process, click on the button below
 
Add a business
 

Other Pages about Catskill Valley Airpark

Update a link
 
Copyright © AirNav, LLC. All rights reserved. Privacy Policy  Contact